Back to catalog

ONEWEB-0440

AliveCommunicationsPO
NORAD 50503·PAYLOAD·🇬🇧 United Kingdom

Launched Dec 27, 2021 from Baikonur Cosmodrome

Loading…

Next Passes (next 24 hours)

TLE

FreshSource: CelesTrak SupGP

Epoch: Sep 14, 2026, 23:26 UTC

1 50503C 21132AL  26257.97653196  .00001566  00000+0  39773-2 0  2575
2 50503  87.9161 317.6176 0002218  93.7845 355.2310 13.18683442    17

Track ONEWEB-0440 in real time with AllMySat

Download on the App Store